User: anonymous   Login
Location: Helsinki
(60.1699°N, 24.9384°E)
Time: 00:28:03
(UTC+03:00)
Language:

Transit 2A Rocket - Orbit

View from above orbital plane
View from above orbital plane
View from above satellite
View from above satellite

Ground track
Ground track

The orbit data is extracted from the following two-line orbital elements,

1 00047U 60007C   22275.52771466  .00000332  00000-0  99600-4 0  9996
2 00047  66.6652  76.4008 0220866  49.5828 312.4313 14.42429719255382
Epoch (UTC): 02 October 2022 12:39:54
Eccentricity: 0.0220866
inclination: 66.6652°
perigee height: 593 km
apogee height: 908 km
right ascension of ascending node: 76.4008°
argument of perigee: 49.5828°
revolutions per day: 14.42429719
mean anomaly at epoch: 312.4313°
orbit number at epoch: 25538

The dashed part of the orbit path shows where the satellite is in the earth's shadow,  

DLR